FW1468 Weather Reports


time (UTC)temp
F
wind
direction
speed
knots
gust
knots
rain 1hr
in
rain 24hr
in
rain mn
in
humidity
%
barometer
mb
20191022081503 42 178 0.0 0.9 0.00 0.01 0.00 97 1018.4
20191022080002 42 178 0.0 0.9 0.00 0.01 0.00 97 1018.6
20191022073228 42 165 0.0 0.0 0.00 0.01 0.00 97 1018.5
20191022071703 42 226 0.0 1.7 0.00 0.01 0.00 97 1018.6
20191022070151 42 170 0.0 0.9 0.00 0.01 0.00 97 1019.3
20191022064623 42 189 0.0 0.0 0.00 0.01 0.00 97 1019.7
20191022063149 42 199 0.0 0.0 0.00 0.01 0.00 97 1019.6
20191022061659 42 200 0.0 0.0 0.00 0.01 0.00 97 1019.5
20191022060202 42 199 0.0 0.0 0.00 0.01 0.00 96 1019.5
20191022054652 42 199 0.0 0.0 0.00 0.01 0.00 96 1019.6
20191022053128 42 199 0.0 0.0 0.00 0.01 0.00 96 1019.8
20191022051653 42 199 0.0 0.0 0.00 0.01 0.00 96 1020.0
20191022050147 42 199 0.0 0.0 0.00 0.01 0.00 96 1020.0
20191022044702 42 200 0.0 0.0 0.00 0.01 0.00 96 1020.0
20191022043219 42 199 0.0 0.0 0.00 0.01 0.00 96 1020.0
20191022041620 42 199 0.0 0.0 0.00 0.01 0.00 96 1019.9
20191022040212 43 199 0.0 0.0 0.00 0.01 0.00 96 1019.8
20191022034652 43 199 0.0 0.0 0.00 0.01 0.01 96 1019.8
20191022033123 42 199 0.0 0.0 0.00 0.01 0.01 96 1019.8
20191022031648 42 199 0.0 0.0 0.00 0.01 0.01 95 1019.8
20191022030129 42 199 0.0 0.0 0.00 0.01 0.01 95 1020.0
20191022024610 43 199 0.0 0.0 0.00 0.01 0.01 95 1019.6
20191022023047 43 199 0.0 0.0 0.00 0.01 0.01 95 1019.4
20191022021636 44 199 0.0 0.0 0.00 0.01 0.01 95 1019.5
20191022020119 44 199 0.0 0.0 0.00 0.01 0.01 95 1019.5
20191022014544 44 199 0.0 0.0 0.00 0.01 0.01 95 1019.7
20191022013109 44 199 0.0 0.0 0.00 0.01 0.01 94 1019.7
20191022011553 45 199 0.0 0.0 0.00 0.01 0.01 94 1019.6
20191022010113 45 199 0.0 0.0 0.00 0.01 0.01 94 1019.1
20191022004604 46 199 0.0 0.9 0.00 0.01 0.01 93 1019.1
20191022001558 48 199 0.0 0.0 0.00 0.01 0.01 92 1019.4
20191022000056 48 199 0.0 0.0 0.00 0.01 0.01 91 1019.0
20191021234549 49 199 0.0 0.0 0.00 0.02 0.01 90 1019.0
20191021233114 49 199 0.0 0.0 0.00 0.02 0.01 89 1019.3
20191021231534 50 199 0.0 0.0 0.00 0.02 0.01 88 1019.2
20191021230101 51 199 0.0 0.0 0.00 0.02 0.01 86 1018.9
20191021224606 52 199 0.0 0.0 0.00 0.02 0.01 84 1018.9
20191021223052 53 199 0.0 0.0 0.00 0.02 0.01 83 1018.9
20191021221542 54 201 0.0 0.9 0.00 0.02 0.01 81 1018.7
20191021220104 56 201 0.0 0.9 0.00 0.02 0.01 79 1018.5
20191021214604 57 201 0.0 0.0 0.00 0.03 0.01 78 1018.6
20191021213131 58 201 0.0 0.9 0.00 0.03 0.01 75 1018.4
20191021211620 59 213 0.0 0.9 0.00 0.03 0.01 74 1018.2
20191021210104 59 210 0.0 1.7 0.00 0.03 0.01 73 1018.1
20191021204547 60 198 0.0 2.6 0.00 0.08 0.01 72 1018.3
20191021203047 60 206 0.0 1.7 0.00 0.08 0.01 72 1017.8
20191021201539 60 213 0.0 4.3 0.00 0.08 0.01 72 1017.6
20191021200026 60 194 0.0 2.6 0.00 0.08 0.01 72 1017.7
20191021194534 60 178 0.0 4.3 0.00 0.11 0.01 72 1017.9
20191021193033 60 225 1.7 7.8 0.00 0.11 0.01 70 1017.8
20191021191548 60 274 0.9 5.2 0.00 0.11 0.01 72 1017.4
20191021190046 60 217 2.6 7.0 0.00 0.11 0.01 73 1017.6
20191021184555 59 196 0.9 6.1 0.00 0.14 0.01 74 1017.5
20191021183029 59 225 2.6 7.8 0.00 0.14 0.01 74 1017.9
20191021180013 58 232 1.7 5.2 0.00 0.14 0.01 78 1017.9
20191021174509 57 210 0.0 6.1 0.00 0.15 0.01 82 1017.9
20191021173006 56 274 3.5 8.7 0.00 0.15 0.01 82 1018.3
20191021171502 55 203 3.5 8.7 0.00 0.15 0.01 83 1018.4
20191021170349 55 201 0.9 5.2 0.00 0.15 0.01 84 1018.7
20191021164635 54 270 0.9 5.2 0.00 0.15 0.01 86 1019.0
20191021163132 53 194 0.9 7.8 0.00 0.15 0.01 88 1019.2
20191021161653 52 223 0.0 5.2 0.00 0.15 0.01 90 1019.3
20191021160154 51 263 0.9 4.3 0.00 0.15 0.01 92 1019.4
20191021154556 50 203 0.0 5.2 0.01 0.15 0.01 95 1019.3
20191021153119 49 208 1.7 7.0 0.01 0.15 0.01 96 1019.3
20191021151610 49 225 1.7 7.0 0.01 0.15 0.01 98 1019.2
20191021150138 48 286 0.9 7.0 0.01 0.15 0.01 98 1019.3
20191021144627 47 206 1.7 6.1 0.00 0.14 0.00 98 1019.3
20191021143123 47 232 1.7 5.2 0.00 0.14 0.00 98 1019.3
20191021141602 48 220 0.0 3.5 0.00 0.14 0.00 98 1019.5
20191021140119 48 281 0.9 3.5 0.00 0.14 0.00 98 1019.1
20191021134540 47 250 0.0 3.5 0.00 0.14 0.00 98 1019.1
20191021133109 47 185 0.0 2.6 0.00 0.14 0.00 98 1019.2
20191021131542 46 199 0.0 0.9 0.00 0.14 0.00 98 1019.0
20191021130126 45 192 0.0 0.9 0.00 0.14 0.00 98 1018.8
20191021124550 45 210 0.0 0.9 0.00 0.14 0.00 98 1019.0
20191021123118 45 42 0.0 0.0 0.00 0.14 0.00 98 1019.1
20191021121559 44 42 0.0 0.9 0.00 0.14 0.00 98 1018.7
20191021120059 44 210 0.0 0.9 0.00 0.14 0.00 98 1018.4
20191021114646 43 206 0.0 0.9 0.00 0.14 0.00 98 1018.4
20191021113045 43 188 0.0 1.7 0.00 0.14 0.00 98 1018.2
20191021111526 43 253 0.0 0.0 0.00 0.14 0.00 98 1018.1
20191021104556 42 272 0.0 2.6 0.00 0.14 0.00 98 1017.9
20191021103035 42 208 0.0 1.7 0.00 0.14 0.00 98 1017.7
20191021101532 42 191 0.0 0.9 0.00 0.14 0.00 98 1017.7
20191021100029 42 177 0.0 0.9 0.00 0.14 0.00 98 1017.4
20191021094544 41 160 0.0 0.0 0.00 0.14 0.00 98 1017.3
20191021093029 41 160 0.0 0.9 0.00 0.14 0.00 98 1017.2
20191021091512 41 158 0.0 0.0 0.00 0.14 0.00 97 1017.1
20191021090005 42 158 0.0 0.0 0.00 0.14 0.00 97 1017.0
20191021084503 43 158 0.0 0.0 0.00 0.14 0.00 97 1016.8
20191021083003 43 85 0.0 0.9 0.00 0.14 0.00 97 1016.6